User: anonymous   Login
Location: Unspecified
(0.0000°N, 0.0000°E)
Time: 01:49:23
(UTC+00:00)
Language:

Tiros 10 - Orbit

View from above orbital plane
View from above orbital plane
View from above satellite
View from above satellite

Ground track
Ground track

The orbit data is extracted from the following two-line orbital elements,

1 01430U 65051A   15115.51181931  .00000311  00000-0  10932-3 0  9990
2 01430 098.0758 300.6969 0057877 108.5250 252.2240 14.40049655610311
Epoch (UTC): 25 April 2015 12:17:01
Eccentricity: 0.0057877
inclination: 98.0758°
perigee height: 717 km
apogee height: 799 km
right ascension of ascending node: 300.6969°
argument of perigee: 108.5250°
revolutions per day: 14.40049655
mean anomaly at epoch: 252.2240°
orbit number at epoch: 61031

The dashed part of the orbit path shows where the satellite is in the earth's shadow,  

DLR